AAA93 YPAD-YBAS

Flight info

Callsign AAA93
Flight time N/A
Altitude 30000
Route AD A585 AREPA J58 WHA J251 AS
Aircraft F28/M-SDFIRWY/H

Departure

Time N/A
Airport Adelaide International Airport (YPAD)

Arrival

Time 2026-05-04 03:04
Airport Alice Springs Airport (YBAS)
Time Latitude Longitude Altitude Speed Heading
2026-05-04 02:32 -25.24378 134.46748 28154 ft 372 kts 334°
2026-05-04 02:32 -25.21959 134.45741 27721 ft 371 kts 334°
2026-05-04 02:32 -25.19543 134.44723 27294 ft 371 kts 333°
2026-05-04 02:33 -25.17156 134.43722 26883 ft 371 kts 334°
2026-05-04 02:33 -25.14732 134.42748 26463 ft 371 kts 334°
2026-05-04 02:33 -25.12303 134.41754 26051 ft 371 kts 335°
2026-05-04 02:33 -25.09885 134.40752 25644 ft 372 kts 334°
2026-05-04 02:34 -25.07465 134.39745 25243 ft 372 kts 335°
2026-05-04 02:34 -25.05030 134.38740 24848 ft 373 kts 335°
2026-05-04 02:34 -25.02598 134.37733 24447 ft 373 kts 335°
2026-05-04 02:34 -25.00163 134.36730 24067 ft 373 kts 335°
2026-05-04 02:35 -24.97754 134.35755 23671 ft 374 kts 335°
2026-05-04 02:35 -24.95308 134.34768 23217 ft 374 kts 335°
2026-05-04 02:35 -24.92864 134.33781 22768 ft 374 kts 335°
2026-05-04 02:35 -24.90418 134.32787 22326 ft 374 kts 336°
2026-05-04 02:36 -24.87975 134.31788 21892 ft 373 kts 335°
2026-05-04 02:36 -24.85553 134.30796 21466 ft 369 kts 336°
2026-05-04 02:36 -24.83156 134.29812 21032 ft 366 kts 336°
2026-05-04 02:36 -24.80783 134.28828 20612 ft 362 kts 336°
2026-05-04 02:37 -24.78458 134.27863 20208 ft 359 kts 336°
2026-05-04 02:37 -24.76120 134.26912 19804 ft 356 kts 336°
2026-05-04 02:37 -24.73800 134.25976 19397 ft 353 kts 336°
2026-05-04 02:37 -24.71494 134.25046 19003 ft 350 kts 336°
2026-05-04 02:38 -24.69211 134.24123 18611 ft 348 kts 336°
2026-05-04 02:38 -24.66953 134.23205 18177 ft 345 kts 336°
2026-05-04 02:38 -24.64735 134.22299 17742 ft 343 kts 336°
2026-05-04 02:38 -24.62501 134.21384 17291 ft 341 kts 336°
2026-05-04 02:39 -24.60278 134.20476 16862 ft 339 kts 336°
2026-05-04 02:39 -24.58070 134.19579 16419 ft 337 kts 336°
2026-05-04 02:39 -24.55896 134.18697 16010 ft 335 kts 336°
2026-05-04 02:39 -24.53712 134.17814 15602 ft 333 kts 336°
2026-05-04 02:40 -24.51534 134.16932 15192 ft 332 kts 336°
2026-05-04 02:40 -24.49398 134.16069 14792 ft 330 kts 336°
2026-05-04 02:40 -24.47247 134.15201 14387 ft 328 kts 336°
2026-05-04 02:40 -24.45111 134.14341 13987 ft 326 kts 336°
2026-05-04 02:41 -24.42982 134.13480 13534 ft 324 kts 336°
2026-05-04 02:41 -24.40873 134.12618 13098 ft 322 kts 336°
2026-05-04 02:41 -24.38776 134.11771 12649 ft 320 kts 336°
2026-05-04 02:41 -24.36712 134.10934 12237 ft 318 kts 336°
2026-05-04 02:42 -24.34642 134.10084 11817 ft 316 kts 335°
2026-05-04 02:42 -24.32586 134.09241 11411 ft 314 kts 335°
2026-05-04 02:42 -24.30546 134.08409 11004 ft 312 kts 335°
2026-05-04 02:42 -24.28537 134.07596 10596 ft 308 kts 335°
2026-05-04 02:43 -24.26532 134.06782 10199 ft 305 kts 335°
2026-05-04 02:43 -24.24567 134.06007 10049 ft 294 kts 335°
2026-05-04 02:43 -24.22691 134.05249 9762 ft 286 kts 335°
2026-05-04 02:43 -24.20845 134.04514 9378 ft 275 kts 335°
2026-05-04 02:44 -24.19071 134.03805 9012 ft 268 kts 335°
2026-05-04 02:44 -24.17380 134.03102 8658 ft 262 kts 335°
2026-05-04 02:44 -24.15710 134.02421 8391 ft 255 kts 336°
2026-05-04 02:44 -24.14084 134.01775 8277 ft 251 kts 336°
2026-05-04 02:45 -24.12444 134.01125 8175 ft 249 kts 336°
2026-05-04 02:45 -24.10817 134.00475 8071 ft 248 kts 336°
2026-05-04 02:45 -24.09199 133.99821 7970 ft 247 kts 336°
2026-05-04 02:45 -24.07588 133.99166 7894 ft 246 kts 336°
2026-05-04 02:46 -24.05983 133.98513 7801 ft 245 kts 336°
2026-05-04 02:46 -24.04397 133.97871 7704 ft 246 kts 336°
2026-05-04 02:46 -24.02782 133.97215 7607 ft 248 kts 337°
2026-05-04 02:46 -24.01145 133.96564 7524 ft 250 kts 336°
2026-05-04 02:47 -23.99515 133.95911 7431 ft 252 kts 336°
2026-05-04 02:47 -23.97886 133.95255 7344 ft 253 kts 337°
2026-05-04 02:47 -23.96236 133.94598 7248 ft 253 kts 336°
2026-05-04 02:47 -23.94577 133.93923 7115 ft 255 kts 336°
2026-05-04 02:48 -23.92908 133.93249 7002 ft 255 kts 337°
2026-05-04 02:48 -23.91232 133.92582 6879 ft 256 kts 337°
2026-05-04 02:48 -23.89550 133.91910 6774 ft 257 kts 337°
2026-05-04 02:48 -23.87951 133.91279 6669 ft 257 kts 337°
2026-05-04 02:49 -23.86297 133.90613 6541 ft 257 kts 336°
2026-05-04 02:49 -23.84677 133.89958 6420 ft 258 kts 337°
2026-05-04 02:49 -23.83004 133.89288 6296 ft 259 kts 338°
2026-05-04 02:49 -23.81283 133.88666 6158 ft 262 kts 348°
2026-05-04 02:50 -23.79455 133.88638 6026 ft 264 kts
2026-05-04 02:50 -23.77637 133.88441 5899 ft 265 kts 339°
2026-05-04 02:50 -23.76122 133.87318 5781 ft 267 kts 310°
2026-05-04 02:50 -23.75283 133.85529 5672 ft 268 kts 282°
2026-05-04 02:51 -23.75242 133.83508 5529 ft 267 kts 266°
2026-05-04 02:51 -23.75128 133.81539 5411 ft 269 kts 281°
2026-05-04 02:51 -23.74602 133.79566 5310 ft 271 kts 290°
2026-05-04 02:51 -23.73760 133.77715 5214 ft 273 kts 300°
2026-05-04 02:52 -23.72804 133.75912 5128 ft 276 kts 299°
2026-05-04 02:52 -23.71841 133.74126 5317 ft 267 kts 301°
2026-05-04 02:52 -23.70896 133.72396 5405 ft 264 kts 301°
2026-05-04 02:52 -23.69953 133.70672 5455 ft 266 kts 301°
2026-05-04 02:53 -23.69013 133.68956 5468 ft 267 kts 301°
2026-05-04 02:53 -23.67853 133.67391 5469 ft 266 kts 324°
2026-05-04 02:53 -23.66184 133.66623 5482 ft 261 kts 354°
2026-05-04 02:53 -23.64399 133.66768 5484 ft 257 kts 14°
2026-05-04 02:54 -23.62661 133.67242 5484 ft 257 kts 17°
2026-05-04 02:54 -23.60942 133.67781 5491 ft 257 kts 18°
2026-05-04 02:54 -23.59206 133.68256 5474 ft 259 kts
2026-05-04 02:54 -23.57492 133.67942 5483 ft 262 kts 336°
2026-05-04 02:55 -23.55319 133.64907 5476 ft 263 kts 277°
2026-05-04 02:55 -23.55489 133.62957 5471 ft 260 kts 247°
2026-05-04 02:55 -23.56505 133.61381 5488 ft 255 kts 216°
2026-05-04 02:56 -23.58054 133.60499 5488 ft 251 kts 199°
2026-05-04 02:56 -23.59715 133.59885 5491 ft 252 kts 195°
2026-05-04 02:56 -23.61377 133.59345 5481 ft 243 kts 193°
2026-05-04 02:56 -23.62982 133.58881 5467 ft 234 kts 189°
2026-05-04 02:57 -23.64493 133.58935 5453 ft 218 kts 158°
2026-05-04 02:57 -23.65672 133.59916 5477 ft 214 kts 122°
2026-05-04 02:57 -23.66373 133.61350 5500 ft 215 kts 115°
2026-05-04 02:57 -23.67010 133.62820 5502 ft 217 kts 114°
2026-05-04 02:58 -23.67647 133.64349 5508 ft 225 kts 114°
2026-05-04 02:58 -23.68292 133.65933 5528 ft 231 kts 114°
2026-05-04 02:58 -23.68950 133.67557 5523 ft 236 kts 114°
2026-05-04 02:58 -23.69634 133.69206 5489 ft 239 kts 114°
2026-05-04 02:59 -23.70331 133.70857 5477 ft 236 kts 115°
2026-05-04 02:59 -23.71056 133.72433 5301 ft 241 kts 118°
2026-05-04 02:59 -23.71851 133.73959 4989 ft 219 kts 121°
2026-05-04 02:59 -23.72588 133.75306 4703 ft 196 kts 121°
2026-05-04 03:00 -23.73254 133.76540 4497 ft 182 kts 121°
2026-05-04 03:00 -23.73877 133.77701 4238 ft 174 kts 121°
2026-05-04 03:00 -23.74462 133.78804 4000 ft 171 kts 120°
2026-05-04 03:00 -23.75075 133.79962 3792 ft 171 kts 121°
2026-05-04 03:01 -23.75680 133.81079 3564 ft 171 kts 121°
2026-05-04 03:01 -23.76251 133.82147 3349 ft 152 kts 121°
2026-05-04 03:01 -23.76746 133.83076 3124 ft 132 kts 122°
2026-05-04 03:01 -23.77192 133.83904 2959 ft 129 kts 123°
2026-05-04 03:02 -23.77648 133.84743 2794 ft 131 kts 123°
2026-05-04 03:02 -23.78116 133.85604 2648 ft 130 kts 124°
2026-05-04 03:02 -23.78558 133.86390 2541 ft 117 kts 120°
2026-05-04 03:02 -23.78968 133.87143 2370 ft 113 kts 118°
2026-05-04 03:03 -23.79358 133.87928 2111 ft 120 kts 120°
2026-05-04 03:03 -23.79763 133.88714 1933 ft 113 kts 125°
2026-05-04 03:03 -23.80136 133.89409 1815 ft 99 kts 126°
2026-05-04 03:03 -23.80451 133.89988 1782 ft 78 kts 120°
2026-05-04 03:04 -23.80689 133.90434 1779 ft 57 kts 121°
2026-05-04 03:04 -23.80829 133.90681 1775 ft 44 kts 120°
2026-05-04 03:04 -23.80956 133.90923 1778 ft 31 kts 120°
2026-05-04 03:04 -23.81054 133.91103 1780 ft 24 kts 120°
2026-05-04 03:05 -23.81126 133.91243 1780 ft 19 kts 120°
2026-05-04 03:05 -23.81163 133.91370 1781 ft 15 kts 105°
2026-05-04 03:05 -23.81194 133.91389 1778 ft 7 kts 223°
2026-05-04 03:05 -23.81176 133.91321 1778 ft 24 kts 302°
2026-05-04 03:06 -23.81057 133.91106 1780 ft 37 kts 300°
2026-05-04 03:06 -23.80932 133.90866 1778 ft 35 kts 304°
2026-05-04 03:06 -23.80807 133.90646 1777 ft 34 kts 299°
2026-05-04 03:06 -23.80693 133.90435 1778 ft 31 kts 299°
2026-05-04 03:07 -23.80583 133.90330 1781 ft 16 kts 17°
2026-05-04 03:07 -23.80518 133.90367 1783 ft 5 kts 28°
2026-05-04 03:07 -23.80504 133.90375 1784 ft 0 kts 28°
2026-05-04 03:08 -23.80501 133.90377 1784 ft 2 kts 27°
2026-05-04 03:08 -23.80473 133.90376 1784 ft 8 kts 323°
2026-05-04 03:08 -23.80429 133.90307 1784 ft 11 kts 300°
2026-05-04 03:08 -23.80391 133.90233 1783 ft 10 kts 291°
2026-05-04 03:09 -23.80356 133.90191 1783 ft 3 kts 11°
2026-05-04 03:09 -23.80341 133.90220 1783 ft 6 kts 72°
2026-05-04 03:09 -23.80335 133.90237 1784 ft 0 kts 72°